Location: Clatteringshaws Loch
(55.0508°N, 4.2860°W)
Time: 06:46:26
(UTC+00:00)

Daily predictions for brighter satellites

Satellite Brightness Start Highest point End
(mag) Time Altitude Azimuth Time Altitude Azimuth Time Altitude Azimuth
CZ-2C R/B 3.0 16:30:15 10° SE 16:34:50 37° ENE 16:39:32 10° N
SL-27 R/B 3.6 16:32:03 10° N 16:35:13 26° NE 16:38:22 10° ESE
Cosmos 990 Rocket 4.3 16:30:25 10° S 16:35:22 51° ESE 16:40:22 10° NE
CZ-2C R/B 4.5 16:31:40 10° NNE 16:35:39 32° E 16:39:39 10° SSE
COSMOS 2406 3.2 16:34:48 10° NNW 16:40:32 72° NE 16:46:16 10° SE
Cosmos 1975 Rocket 4.4 16:37:54 10° SE 16:40:58 19° E 16:44:04 10° NE
CZ-4 R/B 1.9 16:37:06 10° SE 16:41:01 41° ENE 16:44:56 10° N
NOSS 3-4 (A) 4.2 16:36:09 10° WNW 16:42:27 43° N 16:49:07 10° E
NOSS 3-4 (C) 4.2 16:36:15 10° WNW 16:42:33 43° N 16:49:13 10° ENE
Cosmos 2150 Rocket 4.1 16:37:12 10° SSW 16:42:37 82° ESE 16:48:07 10° NNE
USA 234 4.3 16:37:01 10° ENE 16:42:50 33° SE 16:48:35 10° SSW
Cosmos 1818 3.6 16:41:29 10° SW 16:46:58 84° SE 16:52:29 10° NE
SPOT 3 Rocket 3.8 16:43:26 10° SE 16:48:25 49° ENE 16:53:24 10° N
Cosmos 1975 4.4 16:46:17 10° NNE 16:48:51 16° ENE 16:51:25 10° E
PAYLOAD A 3.9 16:45:54 10° SSE 16:50:40 63° ENE 16:55:39 10° N
Meteor 1-5 Rocket 4.3 16:46:17 10° N 16:51:29 48° ENE 16:56:46 10° SE
AQUARIUS 4.5 16:48:29 10° SE 16:52:46 44° ENE 16:57:04 10° N
Cosmos 2298 Rocket 4.2 16:48:30 10° SSW 16:53:50 78° WNW 16:59:13 10° NNE
MOZ.5/SAFIR/RUBIN 5/SL-8 3.8 16:52:06 10° NNE 16:56:47 89° WNW 17:01:28 10° SSW
Cosmos 1300 Rocket 3.7 16:53:04 10° NNW 16:57:27 78° W 17:01:47 10° S
ATLAS 2AS CENTAUR R/B 3.1 16:50:24 10° NW 16:58:39 82° NE 17:06:33 10° SE
SMAP 3.2 16:54:17 10° SE 16:58:47 50° ENE 17:03:18 10° N
Cosmos 1782 3.0 16:58:22 10° SSW 17:02:24 76° WNW 17:06:28 10° N
IDEFIX/ARIANE 42P 2.6 16:58:59 10° SE 17:04:04 57° ENE 17:09:09 10° N
Cosmos 2082 Rocket 3.0 16:59:24 10° NNW 17:04:22 30° NE 17:09:20 10° E
Cosmos 2341 Rocket 4.0 16:58:22 10° N 17:04:38 76° ENE 17:10:51 10° SSE
YAOGAN 1 2.7 17:01:02 10° SE 17:05:14 51° ENE 17:09:28 10° N
Nadezhda 1 Rocket 3.9 16:59:47 10° S 17:05:51 81° E 17:12:03 10° NNE
Cosmos 2297 Rocket 3.7 17:01:08 10° W 17:05:53 26° NNW 17:10:40 10° NNE
Cosmos 2227 Rocket 3.9 17:05:28 10° WNW 17:09:54 23° NNW 17:14:20 10° NNE
USA 161 4.1 17:08:42 10° NNW 17:10:29 17° WNW 17:12:19 10° WSW
Cosmos 1833 Rocket 3.5 17:06:03 10° NNW 17:10:59 29° NE 17:15:43 11° E
Ariane Rocket 4.3 17:10:27 10° S 17:15:18 44° W 17:20:10 10° NNW
Cosmos 1378 Rocket 3.6 17:11:27 10° S 17:15:40 55° E 17:19:55 10° NNE
Resurs 01 Rocket 3.4 17:16:00 14° NE 17:16:00 14° NE 17:18:01 10° NNE
COSMOS 2487 3.8 17:14:16 10° N 17:17:06 21° NE 17:18:23 17° ENE
Cosmos 1898 Rocket 4.1 17:12:40 10° SW 17:17:44 55° NW 17:22:52 10° NNE
SL-16 R/B 3.6 17:13:02 10° N 17:18:48 43° WNW 17:24:33 10° SW
Thor Agena Rocket 4.0 17:14:41 10° NNE 17:19:34 40° E 17:24:27 10° SSE
Cosmos 1455 Rocket 3.5 17:15:46 10° N 17:19:54 39° ENE 17:24:02 10° SE
Cosmos 494 Rocket 4.0 17:17:01 10° NNW 17:22:11 58° ENE 17:27:22 10° SE
Cosmos 1125 Rocket 3.7 17:19:51 10° S 17:25:01 54° ESE 17:29:45 12° NE
Cosmos 1937 Rocket 3.9 17:19:50 10° SW 17:25:04 62° WNW 17:30:17 10° NNE
SJ-7 4.4 17:21:30 10° SSE 17:25:43 72° ENE 17:29:58 10° NNW
BREEZE-M DEB (TANK) 4.0 17:16:53 10° WSW 17:26:33 57° S 17:30:06 15° E
ALOS 3.9 17:27:44 15° NE 17:27:44 15° NE 17:29:46 10° NNE
Genesis I 3.4 17:23:47 10° NW 17:27:40 50° NE 17:30:44 15° ESE
Cosmos 1484 Rocket 3.1 17:25:40 10° SE 17:29:09 37° ENE 17:32:37 10° N
ASTEX 1 4.2 17:28:18 10° N 17:33:12 55° WNW 17:38:04 10° SSW
CZ-4 R/B 4.4 17:29:23 10° SSE 17:33:31 70° ENE 17:37:41 10° N
Cosmos 2251 Rocket 3.5 17:28:33 10° NNW 17:33:58 76° ENE 17:39:19 10° SSE
EO 1 Del DPAF 4.2 17:30:56 10° N 17:34:43 48° WNW 17:38:28 10° SW
Abrixas 4.4 17:33:41 10° SW 17:36:04 22° S 17:37:45 14° SE
Cosmos 2263 Rocket 2.3 17:31:20 10° SW 17:36:58 81° NW 17:42:07 13° NNE
ATLAS CENTAUR R/B 2.6 17:36:32 10° W 17:40:55 38° NNW 17:43:46 18° NNE
Cosmos 864 Rocket 4.5 17:35:46 10° N 17:42:00 65° ENE 17:48:16 10° SSE
Cosmos 1536 3.9 17:40:59 10° NNW 17:44:55 49° W 17:48:51 10° S
MSX 3.8 17:41:47 10° SSE 17:47:33 85° ENE 17:53:21 10° NNW
Cosmos 1500 3.7 17:44:20 10° N 17:47:54 36° ENE 17:51:28 10° SE
CZ-3A R/B 3.9 17:44:56 10° SW 17:50:23 62° SE 18:08:53 19° ENE
Okean 1 4.5 17:48:46 10° SE 17:51:26 25° ESE 17:51:26 25° ESE
Cosmos 1606 4.4 17:50:19 10° SW 17:53:55 33° WNW 17:57:30 10° N
Meteor 1-12 Rocket 4.2 17:53:47 10° NNW 17:59:33 78° ENE 18:05:23 10° SSE
ERBS 2.4 17:57:11 10° W 18:00:35 65° N 18:01:22 47° NE
BREEZE M DEB (TANK) 3.5 17:58:15 10° WSW 18:01:05 42° S 18:05:22 18° ESE
Meteor 1-27 Rocket 4.4 17:57:30 10° SSW 18:03:13 57° WNW 18:08:53 10° N
Cosmos 1844 Rocket 2.9 17:58:08 10° S 18:03:29 49° ESE 18:06:05 28° NE
GEOS 3 Rocket 4.3 18:01:14 10° SSE 18:06:15 55° SW 18:11:18 10° NW
COSMO-SKYMED 1 3.0 18:05:55 37° ENE 18:06:33 39° E 18:10:39 10° SSE
Cosmos 1544 Rocket 3.9 18:03:38 10° NNW 18:08:04 69° W 18:12:30 10° S
SL-27 R/B 3.9 18:07:08 10° NW 18:10:38 41° WSW 18:14:07 10° S
ISS -1.1 18:09:29 10° S 18:11:04 15° SSE 18:11:04 15° SSE
CZ-2C R/B 3.6 18:08:13 10° S 18:13:01 45° W 18:17:58 10° NNW
Cosmos 1844 4.0 18:07:48 10° S 18:13:03 44° ESE 18:14:39 35° ENE
Cosmos 1812 2.7 18:10:49 10° S 18:14:35 54° E 18:14:44 53° E
Okean 3 4.4 18:11:50 10° SSW 18:15:59 48° WNW 18:20:09 10° N
CZ-4 R/B 3.6 18:12:31 10° SSW 18:16:12 29° W 18:19:51 10° NNW
Cosmos 1238 Rocket 3.4 18:14:29 10° S 18:16:08 30° S 18:16:08 30° S
Cosmos 1975 Rocket 3.5 18:14:09 10° SSW 18:18:26 62° WNW 18:22:39 11° N
Meteor 2-21 Rocket 4.4 18:13:52 10° N 18:20:04 63° ENE 18:26:11 10° SSE
Cosmos 2344 4.3 18:14:07 10° W 18:22:14 58° NNW 18:28:33 25° NE
Cosmos 1975 2.9 18:21:51 10° NNW 18:25:58 80° W 18:30:02 10° S
Meteor 2-16 Rocket 4.4 18:19:56 10° N 18:25:59 58° ENE 18:31:58 10° SSE
SJ-6B 3.8 18:27:42 31° N 18:27:42 31° N 18:29:49 10° N
USA 234 3.2 18:23:27 34° ENE 18:26:34 73° SSE 18:33:06 10° WSW
Cosmos 2366 rocket 4.4 18:20:37 10° NNW 18:26:57 67° W 18:33:13 10° S
FengYun 1-2 T 4.4 18:25:21 32° ESE 18:27:32 49° ENE 18:32:59 10° N
SL-24 DEB 4.2 18:23:14 10° N 18:28:03 86° E 18:32:48 10° S
Cosmos 2278 Rocket 2.6 18:25:46 10° S 18:30:55 39° ESE 18:30:55 39° ESE
NOSS 3-4 (A) 3.7 18:27:34 10° NW 18:34:21 71° NNE 18:37:25 37° ESE
NOSS 3-4 (C) 3.7 18:27:41 10° NW 18:34:28 71° NNE 18:37:29 37° ESE
Cosmos 1536 Rocket 3.4 18:30:26 10° S 18:34:53 74° E 18:35:45 55° NE
Cosmos 1535 Rocket 4.5 18:29:31 10° N 18:35:51 60° ENE 18:42:02 10° SSE
SKYMED 3 4.4 18:36:18 66° ENE 18:36:44 72° ESE 18:41:04 10° S
Timation 2 Rocket 4.1 18:30:52 10° NW 18:37:38 88° WSW 18:44:18 11° SSE
Intercosmos 25 4.4 18:33:40 10° N 18:36:03 32° N 18:36:03 32° N
Cosmos 407 Rocket 4.3 18:34:17 10° NNW 18:37:57 33° NNE 18:37:57 33° NNE
Cosmos 1934 Rocket 4.0 18:35:24 10° N 18:41:25 53° ENE 18:43:11 41° ESE
Spot 2 Rocket 3.4 18:44:02 60° E 18:44:23 62° ENE 18:49:28 10° NNW
Cosmos 2082 Rocket 2.1 18:43:27 10° NW 18:49:08 85° WSW 18:51:57 31° SSE
ATLAS 2AS CENTAUR R/B 4.3 18:41:51 10° NW 18:49:13 40° WSW 18:56:15 10° S
FENGYUN 3A 3.7 18:51:04 56° NE 18:51:04 56° NE 18:55:55 10° N
Resurs 01 Rocket 2.9 18:53:35 30° N 18:53:35 30° N 18:55:55 10° N
Cosmos 2297 Rocket 4.1 18:48:29 10° NW 18:51:58 16° N 18:53:16 15° NNE
COSMOS 2487 3.3 18:49:23 10° NNW 18:52:27 49° WNW 18:52:27 49° WNW
Cosmos 2239 Rocket 4.3 18:48:04 10° N 18:54:22 77° ENE 19:00:33 10° SSE
SKYMED 2 3.6 18:54:33 77° NNW 18:54:47 80° WNW 18:59:08 10° SSW
CZ-3B DEB 3.2 18:49:59 10° SSW 18:55:01 51° SE 18:57:23 42° E
Cosmos 1833 Rocket 2.6 18:49:56 10° NW 18:55:38 88° WSW 18:57:29 45° SSE
Cosmos 2227 Rocket 4.1 18:52:43 10° NW 18:56:07 16° N 18:56:53 16° N
BREEZE-M DEB (TANK) 4.4 18:54:52 10° W 19:00:26 39° SSW 19:00:26 39° SSW
Cosmos 1821 Rocket 3.8 18:56:28 10° N 19:02:38 83° ENE 19:08:44 10° SSE
ALOS 3.7 19:06:17 27° N 19:06:17 27° N 19:08:28 10° NNW
Cosmos 1605 Rocket 4.2 19:06:25 10° N 19:11:43 55° NNE 19:11:43 55° NNE
BREEZE-M DEB (TANK) 3.9 18:52:44 10° W 19:13:54 79° S 19:15:18 59° ESE
ATLAS CENTAUR R/B 3.5 19:17:20 10° WNW 19:20:04 22° NNW 19:20:04 22° NNW
Cosmos 2263 Rocket 3.8 19:17:01 10° W 19:21:46 27° NNW 19:23:49 22° N
Meteor 2-9 Rocket 4.4 19:19:19 10° NNW 19:23:57 62° NNW 19:23:57 62° NNW
Nadezhda 3 Rocket 4.1 19:24:52 10° SSW 19:31:05 75° WNW 19:34:56 25° N
COSMO-SKYMED 1 4.2 19:43:09 32° WNW 19:43:09 32° WNW 19:46:33 10° SW
Cosmos 1844 Rocket 3.5 19:42:08 10° WSW 19:47:30 45° NW 19:47:47 44° NW
USA 234 3.5 20:10:48 63° WNW 20:10:48 63° WNW 20:16:15 10° W
Cosmos 2278 Rocket 3.6 20:09:27 10° SW 20:12:48 34° WSW 20:12:48 34° WSW
Cosmos 2082 Rocket 4.4 20:28:33 10° WNW 20:32:28 20° W 20:33:53 18° WSW
Cosmos 2344 4.4 20:29:44 10° WNW 20:38:34 59° NNE 20:38:34 59° NNE
CZ-3B DEB 4.2 21:22:35 10° W 21:26:21 43° W 21:26:21 43° W
